Preview of NWS' New Version of Forecast
This preview is not operational and should not be used for support decisions.

Regional Weather Roundup (RWR)

Issued by Philadelphia/Mt Holly (PHI)

                            
000
ASUS41 KPHI 242112
RWRPHI

REGIONAL WEATHER ROUNDUP
NATIONAL WEATHER SERVICE MOUNT HOLLY NJ
500 PM EDT FRI MAY 24 2019

NOTE:  "FAIR" INDICATES FEW OR NO CLOUDS BELOW 12,000 FEET WITH NO
SIGNIFICANT WEATHER AND/OR OBSTRUCTIONS TO VISIBILITY.

 * = STATION DOES NOT REPORT PRECIPITATION (E.G. RAIN, SNOW, ETC.) 
        OR FOG.

NJZ015>026-242200-
SOUTHERN NEW JERSEY
  
CITY           SKY/WX    TMP DP  RH WIND       PRES   REMARKS
POMONA         FAIR      81  54  39 NW17G28   29.96R                  
WILDWOOD*      FAIR      80  55  42 NW12G21   29.99S                  
MILLVILLE      FAIR      80  51  36 NW16G23   29.98R                  
WRIGHTSTOWN    FAIR      78  51  38 N14G23    29.95R                  
MOUNT HOLLY    FAIR      79  53  40 N17G26    29.97R                  
TRENTON        FAIR      77  51  40 N17G24    29.97R                  

$$
NJZ001>014-242200-
NORTHERN NEW JERSEY
  
CITY           SKY/WX    TMP DP  RH WIND       PRES   REMARKS
SUSSEX         FAIR      69  52  54 NW9G20    30.04R                  
ANDOVER*         N/A     71  51  49 VRB7G23   30.02R                  
MORRISTOWN     PTSUNNY   72  54  53 N17G26    30.00R                  
NEWARK         PTSUNNY   74  50  42 N23G30    29.98R                  
TETERBORO      FAIR      73  51  46 NW10G25   29.97R                  
CALDWELL       PTSUNNY   73  50  44 NW9G23    30.00R                  
SOMERVILLE     FAIR      76  50  40 NW18G26   29.97R                  
ALLAIRE*       FAIR      77  51  40 NW21G30   29.97R                  
TOMS RIVER*    FAIR      77  52  41 NW16G25   29.97R                  

$$
PAZ043-044-047-054-055-060>062-066>071-242200-
EASTERN PENNSYLVANIA
  
CITY           SKY/WX    TMP DP  RH WIND       PRES   REMARKS
PHILADELPHIA   FAIR      81  49  32 NW16      29.98R                  
NORTH PHILA    FAIR      81  50  33 N15G26    29.99R                  
BLUE BELL*     FAIR      78  51  37 W13G21    29.99S                  
DOYLESTOWN     FAIR      79  50  36 N17G26    29.99R                  
QUAKERTOWN*    MOSUNNY   79  52  38 NW10      30.01R                  
PERKASIE*      FAIR      75  50  41 NW13G18   30.01S                  
POTTSTOWN      FAIR      78  51  38 N14G21    30.01S                  
LANCASTER      FAIR      79  52  38 NW12      30.01R                  
COATESVILLE    FAIR      79  50  36 NW12G18   30.04R                  
WEST CHESTER   FAIR      79  46  31 N8G18     30.01R                  
READING        FAIR      79  54  41 N14       30.00R                  
ALLENTOWN      FAIR      79  50  36 N18G25    30.00R                  
QN CITY/ALNTWN FAIR      77  52  41 N14G22    30.02R                  
MOUNT POCONO   PTSUNNY   66  50  56 NW22      30.07R                  
HAZLETON       FAIR      72  46  40 NW14G24   30.09R                  
LEHIGHTON      FAIR      77  48  36 N10       30.02R                  
WILKES BARRE   FAIR      72  53  51 N14G20    30.06R                  

$$
DEZALL-MDZ008-012-015-019-020-242200-
DELAWARE AND EASTERN MARYLAND
  
CITY           SKY/WX    TMP DP  RH WIND       PRES   REMARKS
WILMINGTON     FAIR      82  51  34 N13       30.00R                  
DOVER          FAIR      80  51  36 NW13G24   29.99R                  
CHESWOLD         N/A     79  52  38 NW9G21    30.00S                  
GEORGETOWN     FAIR      81  51  35 NW12G22   30.00S                  
EASTON         SUNNY     82  52  34 NW12G18   30.05R                  
STEVENSVILLE   FAIR      79  57  47 NW9       30.02R                  
ABERDEEN       MOSUNNY   81  52  36 N16       30.01S                  
PATUXENT       FAIR      85  55  35 NW17      30.01                   
OCEAN CITY     FAIR      80  51  36 NW13G25   29.99R                  
WALLOPS ISLAND FAIR      83  54  36 NW18G25   29.99R                  
CAMBRIDGE      SUNNY     81  52  36 NW13G20   30.01S                  
SALISBURY      FAIR      82  53  36 NW17G25   29.99S                  

$$
PAZ001-021-NYZ056-072-MDZ011-DCZ001-242200-
OTHER NEARBY LOCATIONS
  
CITY           SKY/WX    TMP DP  RH WIND       PRES   REMARKS
HARRISBURG     PTSUNNY   77  54  44 NW12      30.01R                  
STATE COLLEGE  SUNNY     73  50  43 NW9       30.10R                  
WILLIAMSPORT   FAIR      78  45  30 N10G21    30.01S                  
BINGHAMTON     PTSUNNY   60  48  64 N15G24    30.10R                  
NEW YORK CITY  FAIR      71  50  47 MISG      30.01R                  
BALTIMORE      FAIR      83  52  34 NW12G22   30.01R                  
WASHINGTON DC  FAIR      83  52  34 N15       30.03R                  

$$